Regional Weather Roundup
Issued by NWS

Home | Current Version | Previous Version | Text Only | Print | Product List | Glossary On
Versions: 1 2 3 4 5 6 7 8 9 10 11 12 13 14 15 16 17 18 19 20 21 22 23 24 25 26 27 28 29 30 31 32 33 34 35 36 37 38 39 40 41 42 43 44 45 46 47 48 49 50
673
ASUS42 KTBW 070416
RWRFL
FLORIDA REGIONAL WEATHER ROUNDUP
NATIONAL WEATHER SERVICE TAMPA BAY RUSKIN FL
1100 PM EST SAT FEB 06 2016

NOTE: "FAIR" INDICATES FEW OR NO CLOUDS BELOW 12,000 FEET WITH NO
SIGNIFICANT WEATHER AND/OR OBSTRUCTIONS TO VISIBILITY.


FLZ001>010-012>015-112-114-115-070500-
PANHANDLE FLORIDA

CITY           SKY/WX    TMP DP  RH WIND       PRES   REMARKS
PENSACOLA      CLEAR     43  25  49 N8        30.23F WCI  38
MILTON NAS     PTCLDY    42  25  50 NW5       30.24  WCI  39
CRESTVIEW      MOCLDY    43  24  47 N5        30.24F WCI  40
DUKE FIELD     FAIR      41  24  49 N1        30.21F
VALPARAISO     PTCLDY    45  23  41 N8        30.21F WCI  41
MARY ESTHER    PTCLDY    42  22  45 N8        30.21F WCI  37
TRI COUNTY     FAIR      41  36  82 CALM      30.23R
PANAMA CITY    FAIR      44  34  67 NW3       30.21R
TYNDALL AFB    CLOUDY    47  33  58 E3        30.21F
APALACHICOLA   CLOUDY    47  34  60 NE6       30.20S WCI  44

STATION/POSITION SKY/WX   TEMP    WIND        PRES    WAVE   SWELL
                          AIR SEA DIR/SP/G            HT/PER HT/PER
                          (F)     (DEG/KT/KT) (MB)    (FT/S) (FT/S)
30.1N   87.6W              53 62  360/ 16/ 19 1023.6R   2/ 4
28.8N   86.0W              58 69  360/ 14/ 17 1022.2F   3/ 4
PANAMA CITY BEAC           50 62   10/  3/  5 1023.4R
CAPE SAN BLAS    NOT AVBL
TOWER C          NOT AVBL
28.5N   84.5W              56 69  360/ 16/ 21 1021.6R   3/ 5

$$
FLZ011-016>038-118-127-128-134-139-239-070500-
NORTH FLORIDA

CITY           SKY/WX    TMP DP  RH WIND       PRES   REMARKS
MARIANNA       CLOUDY    42  35  76 NW3       30.21R
TALLAHASSEE    CLOUDY    45  33  63 NW5       30.19R WCI  43
PERRY          CLOUDY    45  39  81 N10       30.17F WCI  39
LIVE OAK         N/A     43  43 100 NW5       30.17S VSB 1   WCI  40
CROSS CITY       N/A     44  42  93 N8        30.14S WCI  39
LAKE CITY      LGT RAIN  41  41 100 N6        30.12F WCI  37
GAINESVILLE    LGT RAIN  43  42  97 NW10      30.09F WCI  37
WILLISTON      CLOUDY    46  45  93 NW9       30.11F WCI  42
KEYSTONE HEIGH CLOUDY    43  43 100 N9        30.08F WCI  37
PALATKA        LGT RAIN  45  45 100 NW9       30.08S WCI  40
MAYPORT NAS    LGT RAIN  45  42  89 N13G22    30.06F FOG     WCI  39
JACKSONVILLE   LGT RAIN  42  41  96 N8        30.08F FOG     WCI  37
JAX NAS        RAIN      45  41  86 NW14      30.08F WCI  38
JAX CRAIG      LGT RAIN  44  42  93 N13       30.07F FOG     WCI  38
JAX CECIL      CLOUDY    41  41 100 N10       30.09F WCI  35
FERNANDINA BEA CLOUDY    46  43  87 N18G25    30.05F WCI  39
ST AUGUSTINE   LGT RAIN  46  44  93 NW15      30.04F FOG     WCI  40
PALM COAST     DRIZZLE   49  49 100 NW8       30.04S

STATION/POSITION SKY/WX   TEMP    WIND        PRES    WAVE   SWELL
                          AIR SEA DIR/SP/G            HT/PER HT/PER
                          (F)     (DEG/KT/KT) (MB)    (FT/S) (FT/S)
SHELL POINT                44     330/  4/  5 1021.1
KEATON BEACH               44     360/  6/  8 1021.2F
CEDAR KEY                  45     360/  9/ 13 1020.4R
FERNANDINA                 44 56  340/ 12/ 19 1018.6F
30.7N   81.3W                 57                N/A     7/ 7   2/11
MAYPORT                    45 57  350/ 14/ 17 1018.6F
31.4N   80.9W              47 56   20/ 25/ 29 1018.6R
ST AUGUSTINE               46 57  310/ 11/ 16 1017.8R

$$
FLZ040-043>046-052-053-057-058-063-144-070500-
INTERIOR CENTRAL FLORIDA

CITY           SKY/WX    TMP DP  RH WIND       PRES   REMARKS
OCALA          CLOUDY    45  41  87 NW9       30.08F WCI  40
THE VILLAGES     N/A     46  46 100 NW9       29.97F WCI  42
LEESBURG       CLOUDY    48  46  93 NW10      30.06F WCI  43
SANFORD        CLOUDY    53  51  93 NW9       30.03F
ORLANDO EXEC   CLOUDY    52  49  89 NW10      30.04F
ORLANDO INTL   CLOUDY    51  49  92 NW9       30.05F
WINTER HAVEN   CLOUDY    49  48  97 NW10      30.07F WCI  45
LAKELAND       CLOUDY    46  46 100 NW6       30.07F WCI  43
BARTOW         CLOUDY    48  48 100 W8        30.07F WCI  45
OKEECHOBEE     RAIN      55  54  94 NW15      30.04F

$$
FLZ041-047-054-059-064-141-147-070500-
EAST CENTRAL FLORIDA

CITY           SKY/WX    TMP DP  RH WIND       PRES   REMARKS
DAYTONA BEACH  LGT RAIN  53  52  96 NW10      30.02F
DELAND           N/A     50  48  93 NW9       30.03F
JFK SPACE CTR  LGT RAIN  55  54  94 NW12      29.98F
CAPE CANAVERAL LGT RAIN  58  56  94 W15       29.99S
PATRICK AFB    LGT RAIN  58  57  96 NW20      29.98F
MELBOURNE      LGT RAIN  57  56  96 W18       30.00F
VERO BEACH     LGT RAIN  59  57  93 W16       29.99F
FT PIERCE      LGT RAIN  59  59 100 W13G20    29.98F
STUART         DRIZZLE   63  59  88 W12       30.01S

STATION/POSITION SKY/WX   TEMP    WIND        PRES    WAVE   SWELL
                          AIR SEA DIR/SP/G            HT/PER HT/PER
                          (F)     (DEG/KT/KT) (MB)    (FT/S) (FT/S)
28.5N   80.2W              65 74  140/  2/  4 1015.3F
28.9N   78.5W              67 75              1015.4F
TRIDENT PIER               60 65  250/  9/ 11 1015.7F
28.4N   80.5W                 66                N/A     3/11   2/11
27.5N   80.2W                 74                N/A     4/11   2/11

$$
FLZ050-056-061-142-242-148-248-149-249-151-251-155-255-
160-260-070500-
WEST CENTRAL FLORIDA

CITY           SKY/WX    TMP DP  RH WIND       PRES   REMARKS
CRYSTAL RIVER  CLOUDY    45  43  93 N7        30.10F WCI  41
INVERNESS      CLOUDY    45  45 100 N5        30.09S WCI  42
BROOKSVILLE    CLOUDY    47  44  90 NW7       30.10S WCI  44
ZEPHYRHILLS    CLOUDY    46  45  95 NW6       30.08F WCI  43
CLEARWATER AIR CLOUDY    50  48  93 NW8       30.09F
ST PETE CLEARW CLOUDY    51  48  89 NW12      30.09F
TAMPA INTL     CLOUDY    50  48  93 NW9       30.09F
TAMPA EXEC     CLOUDY    50  46  87 NW3       30.09F
PLANT CITY     MOCLDY    50  50 100 NW7       30.09S
MACDILL AFB    CLOUDY    51  51 100 N10G16    30.08F
PETER O KNIGHT CLOUDY    52  50  93 NW5       30.09F
ST PETERSBURG  MOCLDY    51  49  92 N6        30.07F
SARASOTA       MOCLDY    52  50  93 N10       30.07F
VENICE         CLOUDY    54  50  87 N9        30.09F

STATION/POSITION SKY/WX   TEMP    WIND        PRES    WAVE   SWELL
                          AIR SEA DIR/SP/G            HT/PER HT/PER
                          (F)     (DEG/KT/KT) (MB)    (FT/S) (FT/S)
CEDAR KEY                  45     360/  9/ 13 1020.4R
28.5N   84.5W              56 69  360/ 16/ 21 1021.6R   3/ 5
27.3N   84.2W                 71                N/A     4/ 5
CLEARWATER BEACH           53 59  340/ 15/ 18 1019.5F
MIDDLE TAMPA BAY           52     320/ 10/ 12 1019.7R
VENICE                     54 63  350/ 14/ 16 1018.0F

$$
FLZ066-069-070-075>078-162-262-165-265-070500-
SOUTHWEST FLORIDA AND KEYS

CITY           SKY/WX    TMP DP  RH WIND       PRES   REMARKS
PUNTA GORDA    LGT RAIN  53  53 100 N12       30.09F
FT MYERS       CLOUDY    55  52  89 N12       30.06F
SOUTHWEST INTL CLOUDY    56  53  90 NW10      30.06S
NAPLES         CLOUDY    58  55  90 NW8       30.05F
MARCO ISLAND   CLOUDY    57  52  82 NW8       30.04F
MARATHON       CLOUDY    64  61  90 NW12G22   30.04F
KEY WEST NAS   CLOUDY   N/A N/A N/A NW13      30.08R
KEY WEST INTL  LGT RAIN  65  62  90 NW12      30.07S

STATION/POSITION SKY/WX   TEMP    WIND        PRES    WAVE   SWELL
                          AIR SEA DIR/SP/G            HT/PER HT/PER
                          (F)     (DEG/KT/KT) (MB)    (FT/S) (FT/S)
VENICE                     54 63  350/ 14/ 16 1018.0F
NAPLES                        66              1018.0S
26.0N   85.6W              66 80  350/ 16/ 19 1019.9F   3/ 7   2/ 7
DRY TORTUGAS                                    N/A
SAND KEY                   66     350/ 16/ 19 1018.5F
LONG KEY                   64 70  340/ 16/ 17 1017.8F
MOLASSES REEF              65 77  310/ 17/ 19 1016.6F

$$
FLZ067-068-071>074-168-172>174-070500-
SOUTHEAST FLORIDA

CITY           SKY/WX    TMP DP  RH WIND       PRES   REMARKS
W PALM BEACH   HVY RAIN  61  60  97 W12       30.01S FOG
BOCA RATON     RAIN      61  59  94 NW12G17   30.01S FOG
FT LAUDER-EXEC RAIN      61  60  97 W8        30.02S FOG
FT LAUDERDALE  LGT RAIN  62  61  96 W10       30.01F FOG
POMPANO BEACH  RAIN      61  61 100 W14       30.01F FOG
PEMBROKE PINES LGT RAIN  61  59  93 W12       30.04F
OPA LOCKA      LGT RAIN  63  61  93 W8        30.03F
MIAMI          LGT RAIN  62  61  96 VRB5      30.03F
WEST KENDALL   LGT RAIN  61  61 100 NW12      30.03F
HOMESTEAD      LGT RAIN  63  62  96 NW12      30.02F

STATION/POSITION SKY/WX   TEMP    WIND        PRES    WAVE   SWELL
                          AIR SEA DIR/SP/G            HT/PER HT/PER
                          (F)     (DEG/KT/KT) (MB)    (FT/S) (FT/S)
PORT EVERGLADES            63     290/ 14/ 20 1015.8F
VIRGINIA KEY               64 73  310/ 11/ 14 1016.6F
LAKE WORTH                 62 75  290/ 10/ 12 1015.6F
SETTLEMENT POINT           75     200/ 21/ 23 1015.0F

$$

  C1F1M1C2F2M2C3F3C4F4M3C5F5M4C6F6M5C7F7M6C8!



USA.gov is the U.S. government's official web portal to all federal, state and local government web resources and services.